TimeCST,TemperatureF,Dew PointF,Humidity,Sea Level PressureIn,VisibilityMPH,Wind Direction,Wind SpeedMPH,Gust SpeedMPH,PrecipitationIn,Events,Conditions,WindDirDegrees,DateUTC
12:03 AM,15.8,15.8,100,29.83,7.0,SE,6.9,-,N/A,Snow,Light Snow,140,2012-12-17 06:03:00
12:11 AM,15.8,15.8,100,29.82,10.0,SE,6.9,-,N/A,,Light Freezing Drizzle,130,2012-12-17 06:11:00
12:40 AM,17.6,15.8,93,29.81,10.0,SE,6.9,-,N/A,Snow,Light Snow,140,2012-12-17 06:40:00
12:55 AM,16.5,15.1,94,29.81,10.0,SE,6.9,-,0.00,,Overcast,140,2012-12-17 06:55:00
1:34 AM,15.8,15.8,100,29.79,10.0,SE,6.9,-,N/A,Snow,Light Snow,140,2012-12-17 07:34:00
1:55 AM,16.7,15.3,94,29.78,7.0,SE,8.1,-,0.00,Snow,Light Snow,140,2012-12-17 07:55:00
2:00 AM,17.6,15.8,93,29.78,6.0,SE,8.1,-,N/A,Snow,Light Snow,140,2012-12-17 08:00:00
2:23 AM,15.8,15.8,100,29.77,8.0,SSE,8.1,-,N/A,Snow,Light Snow,150,2012-12-17 08:23:00
2:25 AM,15.8,14.0,93,29.77,9.0,SSE,8.1,-,N/A,Snow,Light Snow,150,2012-12-17 08:25:00
2:26 AM,15.8,14.0,93,29.77,9.0,SSE,8.1,-,N/A,Snow,Light Snow,150,2012-12-17 08:26:00
2:32 AM,15.8,14.0,93,29.76,10.0,SE,8.1,-,N/A,Snow,Light Snow,140,2012-12-17 08:32:00
2:37 AM,15.8,14.0,93,29.76,10.0,SE,6.9,-,N/A,Snow,Light Snow,140,2012-12-17 08:37:00
2:54 AM,15.8,14.0,93,29.77,10.0,SSE,5.8,-,N/A,,Overcast,150,2012-12-17 08:54:00
2:55 AM,15.8,14.5,95,29.77,10.0,SSE,5.8,-,0.00,,Overcast,150,2012-12-17 08:55:00
3:55 AM,15.4,13.8,93,29.75,10.0,SSE,6.9,-,N/A,,Overcast,150,2012-12-17 09:55:00
3:58 AM,15.8,14.0,93,29.75,10.0,SSE,6.9,-,N/A,,Overcast,150,2012-12-17 09:58:00
4:55 AM,15.3,13.6,93,29.74,10.0,SSE,3.5,-,N/A,,Overcast,150,2012-12-17 10:55:00
5:49 AM,15.8,14.0,93,29.72,10.0,SSE,5.8,-,N/A,,Overcast,150,2012-12-17 11:49:00
5:55 AM,15.3,13.6,93,29.72,10.0,SSE,5.8,-,N/A,,Overcast,150,2012-12-17 11:55:00
6:10 AM,15.8,14.0,93,29.72,10.0,SE,6.9,-,N/A,,Overcast,140,2012-12-17 12:10:00
6:32 AM,15.8,14.0,93,29.71,10.0,SSE,5.8,-,N/A,,Overcast,150,2012-12-17 12:32:00
6:46 AM,15.8,15.8,100,29.70,10.0,SSE,6.9,-,N/A,,Overcast,150,2012-12-17 12:46:00
6:55 AM,16.5,15.1,94,29.71,9.0,SE,8.1,-,N/A,,Overcast,140,2012-12-17 12:55:00
7:30 AM,15.8,15.8,100,29.70,2.5,SE,8.1,-,N/A,,Overcast,140,2012-12-17 13:30:00
7:35 AM,15.8,15.8,100,29.70,1.8,SE,6.9,-,N/A,,Overcast,130,2012-12-17 13:35:00
7:38 AM,15.8,15.8,100,29.70,1.5,SE,6.9,-,N/A,,Overcast,130,2012-12-17 13:38:00
7:41 AM,15.8,15.8,100,29.70,1.8,SE,5.8,-,N/A,,Overcast,130,2012-12-17 13:41:00
7:42 AM,17.6,15.8,93,29.70,2.0,SE,6.9,-,N/A,,Overcast,130,2012-12-17 13:42:00
7:46 AM,17.6,15.8,93,29.70,3.0,SE,6.9,-,N/A,,Overcast,140,2012-12-17 13:46:00
7:55 AM,16.7,15.3,94,29.70,7.0,SE,6.9,-,N/A,,Overcast,140,2012-12-17 13:55:00
8:32 AM,17.6,15.8,93,29.70,2.5,SSE,4.6,-,N/A,,Overcast,160,2012-12-17 14:32:00
8:39 AM,17.6,15.8,93,29.70,3.0,SSE,5.8,-,N/A,,Overcast,150,2012-12-17 14:39:00
8:55 AM,17.2,15.8,94,29.70,4.0,SSE,5.8,-,N/A,,Overcast,160,2012-12-17 14:55:00
9:32 AM,17.6,17.6,100,29.69,2.5,South,5.8,-,N/A,,Overcast,190,2012-12-17 15:32:00
9:49 AM,17.6,17.6,100,29.68,1.8,SSW,8.1,-,N/A,,Overcast,200,2012-12-17 15:49:00
9:53 AM,17.6,17.6,100,29.68,1.2,South,8.1,-,N/A,,Overcast,180,2012-12-17 15:53:00
9:54 AM,17.6,17.6,100,29.68,1.2,South,8.1,-,N/A,,Light Freezing Drizzle,180,2012-12-17 15:54:00
9:55 AM,18.1,16.9,95,29.68,1.2,South,8.1,-,0.00,,Light Freezing Drizzle,180,2012-12-17 15:55:00
9:56 AM,17.6,17.6,100,29.68,1.0,South,6.9,-,N/A,,Light Freezing Drizzle,180,2012-12-17 15:56:00
10:05 AM,17.6,17.6,100,29.57,1.0,SSW,4.6,-,N/A,,Light Freezing Drizzle,200,2012-12-17 16:05:00
10:07 AM,17.6,17.6,100,29.68,1.2,South,4.6,-,N/A,,Overcast,190,2012-12-17 16:07:00
10:18 AM,19.4,17.6,93,29.68,1.0,South,5.8,-,N/A,,Overcast,190,2012-12-17 16:18:00
10:36 AM,19.4,17.6,93,29.67,1.2,South,6.9,-,N/A,,Overcast,180,2012-12-17 16:36:00
10:40 AM,19.4,17.6,93,29.67,1.5,South,6.9,-,N/A,,Overcast,190,2012-12-17 16:40:00
10:47 AM,19.4,17.6,93,29.67,1.2,SSW,5.8,-,N/A,,Overcast,210,2012-12-17 16:47:00
10:49 AM,19.4,17.6,93,29.67,1.0,SSW,5.8,-,N/A,,Overcast,200,2012-12-17 16:49:00
10:52 AM,19.4,17.6,93,29.67,0.8,South,4.6,-,N/A,,Overcast,190,2012-12-17 16:52:00
10:54 AM,19.4,17.6,93,29.67,1.0,South,4.6,-,N/A,,Overcast,180,2012-12-17 16:54:00
10:55 AM,18.9,17.6,95,29.67,1.0,South,5.8,-,N/A,,Overcast,170,2012-12-17 16:55:00
10:59 AM,19.4,17.6,93,29.67,1.2,South,5.8,-,N/A,,Overcast,170,2012-12-17 16:59:00
11:01 AM,19.4,17.6,93,29.67,1.5,South,6.9,-,N/A,,Overcast,170,2012-12-17 17:01:00
11:13 AM,19.4,17.6,93,29.66,1.2,South,5.8,-,N/A,,Overcast,170,2012-12-17 17:13:00
11:17 AM,19.4,17.6,93,29.66,1.5,South,5.8,-,N/A,,Overcast,170,2012-12-17 17:17:00
11:55 AM,19.0,18.0,96,29.65,1.5,South,5.8,-,N/A,,Overcast,190,2012-12-17 17:55:00
11:59 AM,19.4,17.6,93,29.65,2.0,SSW,5.8,-,N/A,,Overcast,200,2012-12-17 17:59:00
12:09 PM,19.4,19.4,100,29.65,1.8,South,5.8,-,N/A,,Overcast,180,2012-12-17 18:09:00
12:14 PM,19.4,19.4,100,29.64,1.2,South,4.6,-,N/A,,Overcast,180,2012-12-17 18:14:00
12:19 PM,19.4,19.4,100,29.64,1.5,South,3.5,-,N/A,,Overcast,190,2012-12-17 18:19:00
12:49 PM,19.4,19.4,100,29.63,1.2,South,3.5,-,N/A,,Overcast,180,2012-12-17 18:49:00
12:51 PM,19.4,19.4,100,29.63,1.5,SSE,3.5,-,N/A,,Overcast,160,2012-12-17 18:51:00
12:52 PM,19.4,19.4,100,29.63,1.2,SSE,4.6,-,N/A,,Overcast,160,2012-12-17 18:52:00
12:53 PM,19.4,19.4,100,29.63,1.5,SSE,4.6,-,N/A,,Overcast,160,2012-12-17 18:53:00
12:55 PM,19.8,18.9,96,29.63,1.5,SSE,5.8,-,N/A,,Overcast,150,2012-12-17 18:55:00
1:05 PM,19.4,19.4,100,29.63,1.5,SSE,5.8,-,N/A,,Overcast,150,2012-12-17 19:05:00
1:20 PM,19.4,19.4,100,29.63,2.0,South,4.6,-,N/A,,Overcast,180,2012-12-17 19:20:00
1:30 PM,19.4,19.4,100,29.63,1.8,South,4.6,-,N/A,,Overcast,170,2012-12-17 19:30:00
1:37 PM,19.4,19.4,100,29.62,2.0,South,3.5,-,N/A,,Overcast,180,2012-12-17 19:37:00
1:44 PM,19.4,19.4,100,29.62,3.0,South,4.6,-,N/A,,Overcast,170,2012-12-17 19:44:00
1:55 PM,19.9,19.0,96,29.62,4.0,SSE,4.6,-,N/A,,Overcast,160,2012-12-17 19:55:00
2:22 PM,19.4,19.4,100,29.62,2.5,SSE,6.9,-,N/A,,Overcast,160,2012-12-17 20:22:00
2:55 PM,20.3,19.4,96,29.62,2.5,SSE,5.8,-,N/A,,Overcast,160,2012-12-17 20:55:00
2:57 PM,21.2,19.4,93,29.62,3.0,South,4.6,-,N/A,,Overcast,170,2012-12-17 20:57:00
3:55 PM,19.9,19.0,96,29.61,8.0,SE,4.6,-,N/A,,Overcast,140,2012-12-17 21:55:00
3:59 PM,19.4,19.4,100,29.61,10.0,SE,5.8,-,N/A,,Overcast,130,2012-12-17 21:59:00
6:28 PM,21.2,19.4,93,29.60,1.2,SE,3.5,-,N/A,,Overcast,140,2012-12-18 00:28:00
6:55 PM,21.2,20.5,97,29.60,1.2,SSE,4.6,-,N/A,,Overcast,160,2012-12-18 00:55:00
7:01 PM,21.2,21.2,100,29.60,1.0,SSE,4.6,-,N/A,,Mist,150,2012-12-18 01:01:00
7:05 PM,21.2,21.2,100,29.60,1.2,SSE,3.5,-,N/A,,Overcast,150,2012-12-18 01:05:00
7:11 PM,21.2,21.2,100,29.60,1.5,SE,3.5,-,N/A,,Overcast,140,2012-12-18 01:11:00
7:13 PM,21.2,21.2,100,29.60,1.2,SSE,3.5,-,N/A,,Overcast,150,2012-12-18 01:13:00
7:37 PM,21.2,21.2,100,29.61,1.0,SSE,4.6,-,N/A,,Mist,150,2012-12-18 01:37:00
7:49 PM,21.2,21.2,100,29.60,1.2,SE,3.5,-,N/A,,Overcast,140,2012-12-18 01:49:00
7:55 PM,21.2,20.5,97,29.60,1.2,SE,4.6,-,N/A,,Overcast,140,2012-12-18 01:55:00
7:56 PM,21.2,21.2,100,29.60,1.0,SE,4.6,-,N/A,,Mist,140,2012-12-18 01:56:00
8:00 PM,21.2,21.2,100,29.60,1.2,SE,4.6,-,N/A,,Overcast,140,2012-12-18 02:00:00
8:06 PM,21.2,21.2,100,29.60,1.5,SSE,4.6,-,N/A,,Overcast,150,2012-12-18 02:06:00
8:11 PM,21.2,21.2,100,29.60,1.2,SE,3.5,-,N/A,,Overcast,140,2012-12-18 02:11:00
8:20 PM,21.2,21.2,100,29.60,1.5,SSE,3.5,-,N/A,,Overcast,150,2012-12-18 02:20:00
8:27 PM,21.2,21.2,100,29.60,1.5,SE,3.5,-,N/A,,Overcast,130,2012-12-18 02:27:00
8:43 PM,21.2,19.4,93,29.60,2.0,SE,3.5,-,N/A,,Overcast,130,2012-12-18 02:43:00
8:51 PM,19.4,19.4,100,29.60,2.5,SE,3.5,-,N/A,,Overcast,140,2012-12-18 02:51:00
8:55 PM,20.1,19.2,96,29.60,2.5,SE,3.5,-,N/A,,Overcast,130,2012-12-18 02:55:00
9:17 PM,19.4,19.4,100,29.60,3.0,SE,3.5,-,N/A,,Overcast,140,2012-12-18 03:17:00
9:47 PM,19.4,17.6,93,29.59,6.0,SE,3.5,-,N/A,,Overcast,130,2012-12-18 03:47:00
9:55 PM,19.4,18.5,96,29.59,9.0,SSE,3.5,-,N/A,,Overcast,150,2012-12-18 03:55:00
10:55 PM,18.1,16.9,95,29.59,10.0,SE,3.5,-,N/A,,Overcast,140,2012-12-18 04:55:00
11:55 PM,18.7,17.8,96,29.59,10.0,Calm,Calm,-,N/A,,Overcast,0,2012-12-18 05:55:00